Location: Estherville
(43.4020°N, 94.8330°W)
Time: 22:53:25
(UTC-06:00)

OTV 5 (USA 277) - Visible Passes

Search period start: 15 February 2019 00:00
Search period end: 25 February 2019 00:00
Orbit: 342 x 346 km, 54.5° (Epoch: 09 February)

Date Brightness Start Highest point End Pass type
(mag) Time Alt. Az. Time Alt. Az. Time Alt. Az.
15 Feb ? 05:27:11 49° E 05:27:11 49° E 05:29:28 10° ESE visible
16 Feb ? 05:50:28 32° SSW 05:50:28 32° SSW 05:52:49 10° SSE visible
17 Feb ? 06:13:55 11° SW 06:13:55 11° SW 06:14:20 10° SW visible
22 Feb ? 19:51:19 10° SSW 19:52:08 17° SSW 19:52:08 17° SSW visible
23 Feb ? 18:41:32 10° SSE 18:43:08 14° SE 18:44:17 12° ESE visible
23 Feb ? 20:14:55 10° WSW 20:15:45 17° WSW 20:15:45 17° WSW visible
24 Feb ? 19:03:46 10° SSW 19:06:32 44° SE 19:07:47 26° E visible
